Time,TemperatureF,DewpointF,PressureIn,WindDirection,WindDirectionDegrees,WindSpeedMPH,WindSpeedGustMPH,Humidity,HourlyPrecipIn,Conditions,Clouds,dailyrainin,SolarRadiationWatts/m^2,SoftwareType,DateUTC
2013-10-20 00:02:00,33.0,12.0,-100.00,North,8,6.0,18.0,41,0.00,,,0.00,0.000000,,2013-10-20 06:02:00,
2013-10-20 00:42:00,31.0,12.0,-100.00,North,350,4.0,14.0,44,0.00,,,0.00,0.000000,,2013-10-20 06:42:00,
2013-10-20 00:52:00,31.0,12.0,-100.00,North,350,4.0,14.0,44,0.00,,,0.00,0.000000,,2013-10-20 06:52:00,
2013-10-20 01:02:00,31.0,12.0,-100.00,North,350,4.0,14.0,44,0.00,,,0.00,0.000000,,2013-10-20 07:02:00,
2013-10-20 01:42:00,31.0,12.0,-100.00,North,2,5.0,12.0,44,0.00,,,0.00,0.000000,,2013-10-20 07:42:00,
2013-10-20 01:52:00,31.0,12.0,-100.00,North,2,5.0,12.0,44,0.00,,,0.00,0.000000,,2013-10-20 07:52:00,
2013-10-20 02:02:00,31.0,12.0,-100.00,North,2,5.0,12.0,44,0.00,,,0.00,0.000000,,2013-10-20 08:02:00,
2013-10-20 02:42:00,33.0,12.0,-100.00,NNE,28,7.0,13.0,42,0.00,,,0.00,0.000000,,2013-10-20 08:42:00,
2013-10-20 02:52:00,33.0,12.0,-100.00,NNE,28,7.0,13.0,42,0.00,,,0.00,0.000000,,2013-10-20 08:52:00,
2013-10-20 03:02:00,33.0,12.0,-100.00,NNE,28,7.0,13.0,42,0.00,,,0.00,0.000000,,2013-10-20 09:02:00,
2013-10-20 03:43:00,33.0,13.0,-100.00,NE,37,7.0,14.0,43,0.00,,,0.00,0.000000,,2013-10-20 09:43:00,
2013-10-20 03:53:00,33.0,13.0,-100.00,NE,37,7.0,14.0,43,0.00,,,0.00,0.000000,,2013-10-20 09:53:00,
2013-10-20 04:03:00,33.0,13.0,-100.00,NE,37,7.0,14.0,43,0.00,,,0.00,0.000000,,2013-10-20 10:03:00,
2013-10-20 04:43:00,32.0,13.0,-100.00,NNE,28,6.0,11.0,45,0.00,,,0.00,0.000000,,2013-10-20 10:43:00,
2013-10-20 04:53:00,32.0,13.0,-100.00,NNE,28,6.0,11.0,45,0.00,,,0.00,0.000000,,2013-10-20 10:53:00,
2013-10-20 05:02:00,32.0,13.0,-100.00,NNE,28,6.0,11.0,45,0.00,,,0.00,0.000000,,2013-10-20 11:02:00,
2013-10-20 05:43:00,32.0,14.0,-100.00,NE,41,6.0,11.0,46,0.00,,,0.00,0.000000,,2013-10-20 11:43:00,
2013-10-20 05:52:00,32.0,14.0,-100.00,NE,41,6.0,11.0,46,0.00,,,0.00,0.000000,,2013-10-20 11:52:00,
2013-10-20 06:02:00,32.0,14.0,-100.00,NE,41,6.0,11.0,46,0.00,,,0.00,0.000000,,2013-10-20 12:02:00,
2013-10-20 06:42:00,32.0,14.0,-100.00,NNE,23,6.0,13.0,47,0.00,,,0.00,0.000000,,2013-10-20 12:42:00,
2013-10-20 06:52:00,32.0,14.0,-100.00,NNE,23,6.0,13.0,47,0.00,,,0.00,0.000000,,2013-10-20 12:52:00,
2013-10-20 07:01:00,32.0,14.0,-100.00,NNE,23,6.0,13.0,47,0.00,,,0.00,0.000000,,2013-10-20 13:01:00,
2013-10-20 07:42:00,32.0,14.0,-100.00,NNE,23,7.0,12.0,46,0.00,,,0.00,0.000000,,2013-10-20 13:42:00,
2013-10-20 07:52:00,32.0,14.0,-100.00,NNE,23,7.0,12.0,46,0.00,,,0.00,0.000000,,2013-10-20 13:52:00,
2013-10-20 08:02:00,32.0,14.0,-100.00,NNE,23,7.0,12.0,46,0.00,,,0.00,0.000000,,2013-10-20 14:02:00,
2013-10-20 08:42:00,33.0,13.0,-100.00,NNE,21,7.0,13.0,44,0.00,,,0.00,21.000000,,2013-10-20 14:42:00,
2013-10-20 08:52:00,33.0,13.0,-100.00,NNE,21,7.0,13.0,44,0.00,,,0.00,21.000000,,2013-10-20 14:52:00,
2013-10-20 09:02:00,33.0,13.0,-100.00,NNE,21,7.0,13.0,44,0.00,,,0.00,21.000000,,2013-10-20 15:02:00,
2013-10-20 09:44:00,36.0,14.0,-100.00,North,2,6.0,18.0,40,0.00,,,0.00,170.000000,,2013-10-20 15:44:00,
2013-10-20 09:54:00,36.0,14.0,-100.00,North,2,6.0,18.0,40,0.00,,,0.00,170.000000,,2013-10-20 15:54:00,
2013-10-20 10:04:00,36.0,14.0,-100.00,North,2,6.0,18.0,40,0.00,,,0.00,170.000000,,2013-10-20 16:04:00,
2013-10-20 10:43:00,38.0,13.0,-100.00,North,6,11.0,23.0,35,0.00,,,0.00,441.000000,,2013-10-20 16:43:00,
2013-10-20 10:54:00,38.0,13.0,-100.00,North,6,11.0,23.0,35,0.00,,,0.00,441.000000,,2013-10-20 16:54:00,
2013-10-20 11:03:00,38.0,13.0,-100.00,North,6,11.0,23.0,35,0.00,,,0.00,441.000000,,2013-10-20 17:03:00,
2013-10-20 11:42:00,42.0,14.0,-100.00,North,7,9.0,22.0,32,0.00,,,0.00,677.000000,,2013-10-20 17:42:00,
2013-10-20 11:52:00,42.0,14.0,-100.00,North,7,9.0,22.0,32,0.00,,,0.00,677.000000,,2013-10-20 17:52:00,
2013-10-20 12:02:00,42.0,14.0,-100.00,North,7,9.0,22.0,32,0.00,,,0.00,677.000000,,2013-10-20 18:02:00,
2013-10-20 12:42:00,42.0,14.0,-100.00,North,4,8.0,18.0,32,0.00,,,0.00,673.000000,,2013-10-20 18:42:00,
2013-10-20 12:52:00,42.0,14.0,-100.00,North,4,8.0,18.0,32,0.00,,,0.00,673.000000,,2013-10-20 18:52:00,
2013-10-20 13:02:00,42.0,14.0,-100.00,North,4,8.0,18.0,32,0.00,,,0.00,673.000000,,2013-10-20 19:02:00,
2013-10-20 13:42:00,40.0,15.0,-100.00,NNE,24,4.0,15.0,35,0.00,,,0.00,312.000000,,2013-10-20 19:42:00,
2013-10-20 13:52:00,40.0,15.0,-100.00,NNE,24,4.0,15.0,35,0.00,,,0.00,312.000000,,2013-10-20 19:52:00,
2013-10-20 14:02:00,40.0,15.0,-100.00,NNE,24,4.0,15.0,35,0.00,,,0.00,312.000000,,2013-10-20 20:02:00,
2013-10-20 14:43:00,44.0,17.0,-100.00,WNW,300,6.0,19.0,34,0.00,,,0.00,766.000000,,2013-10-20 20:43:00,
2013-10-20 14:52:00,44.0,17.0,-100.00,WNW,300,6.0,19.0,34,0.00,,,0.00,766.000000,,2013-10-20 20:52:00,
2013-10-20 15:02:00,44.0,17.0,-100.00,WNW,300,6.0,19.0,34,0.00,,,0.00,766.000000,,2013-10-20 21:02:00,
2013-10-20 15:44:00,42.0,18.0,-100.00,North,3,8.0,16.0,38,0.00,,,0.00,770.000000,,2013-10-20 21:44:00,
2013-10-20 15:54:00,42.0,18.0,-100.00,North,3,8.0,16.0,38,0.00,,,0.00,770.000000,,2013-10-20 21:54:00,
2013-10-20 16:04:00,42.0,18.0,-100.00,North,3,8.0,16.0,38,0.00,,,0.00,770.000000,,2013-10-20 22:04:00,
2013-10-20 16:43:00,40.0,16.0,-100.00,NNW,339,5.0,16.0,37,0.00,,,0.00,409.000000,,2013-10-20 22:43:00,
2013-10-20 16:53:00,40.0,16.0,-100.00,NNW,339,5.0,16.0,37,0.00,,,0.00,409.000000,,2013-10-20 22:53:00,
2013-10-20 17:03:00,40.0,16.0,-100.00,NNW,339,5.0,16.0,37,0.00,,,0.00,409.000000,,2013-10-20 23:03:00,
2013-10-20 17:43:00,38.0,14.0,-100.00,WNW,288,4.0,10.0,37,0.00,,,0.00,131.000000,,2013-10-20 23:43:00,
2013-10-20 17:52:00,38.0,14.0,-100.00,WNW,288,4.0,10.0,37,0.00,,,0.00,131.000000,,2013-10-20 23:52:00,
2013-10-20 18:02:00,38.0,14.0,-100.00,WNW,288,4.0,10.0,37,0.00,,,0.00,131.000000,,2013-10-21 00:02:00,
2013-10-20 18:43:00,35.0,13.0,-100.00,North,10,5.0,10.0,40,0.00,,,0.00,55.000000,,2013-10-21 00:43:00,
2013-10-20 18:52:00,35.0,13.0,-100.00,North,10,5.0,10.0,40,0.00,,,0.00,55.000000,,2013-10-21 00:52:00,
2013-10-20 19:02:00,35.0,13.0,-100.00,North,10,5.0,10.0,40,0.00,,,0.00,55.000000,,2013-10-21 01:02:00,
2013-10-20 19:42:00,31.0,22.0,-100.00,NNE,16,4.0,11.0,69,0.00,,,0.00,2.000000,,2013-10-21 01:42:00,
2013-10-20 19:52:00,31.0,22.0,-100.00,NNE,16,4.0,11.0,69,0.00,,,0.00,2.000000,,2013-10-21 01:52:00,
2013-10-20 20:02:00,31.0,22.0,-100.00,NNE,16,4.0,11.0,69,0.00,,,0.00,2.000000,,2013-10-21 02:02:00,
2013-10-20 20:42:00,29.0,23.0,-100.00,North,7,5.0,12.0,78,0.00,,,0.00,0.000000,,2013-10-21 02:42:00,
2013-10-20 20:52:00,29.0,23.0,-100.00,North,7,5.0,12.0,78,0.00,,,0.00,0.000000,,2013-10-21 02:52:00,
2013-10-20 21:03:00,29.0,23.0,-100.00,North,7,5.0,12.0,78,0.00,,,0.00,0.000000,,2013-10-21 03:03:00,
2013-10-20 21:45:00,27.0,22.0,-100.00,NNW,337,2.0,8.0,82,0.00,,,0.00,0.000000,,2013-10-21 03:45:00,
2013-10-20 21:55:00,27.0,22.0,-100.00,NNW,337,2.0,8.0,82,0.00,,,0.00,0.000000,,2013-10-21 03:55:00,
2013-10-20 22:04:00,27.0,22.0,-100.00,NNW,337,2.0,8.0,82,0.00,,,0.00,0.000000,,2013-10-21 04:04:00,
2013-10-20 22:44:00,28.0,22.0,-100.00,NW,324,4.0,6.0,79,0.00,,,0.00,0.000000,,2013-10-21 04:44:00,
2013-10-20 22:53:00,28.0,22.0,-100.00,NW,324,4.0,6.0,79,0.00,,,0.00,0.000000,,2013-10-21 04:53:00,
2013-10-20 23:04:00,28.0,22.0,-100.00,NW,324,4.0,6.0,79,0.00,,,0.00,0.000000,,2013-10-21 05:04:00,
2013-10-20 23:43:00,27.0,24.0,-100.00,North,2,3.0,8.0,87,0.00,,,0.00,0.000000,,2013-10-21 05:43:00,
2013-10-20 23:52:00,27.0,24.0,-100.00,North,2,3.0,8.0,87,0.00,,,0.00,0.000000,,2013-10-21 05:52:00,